Regional Weather Roundup
Issued by NWS Mobile, AL

Home | Current Version | Previous Version | Text Only | Print | Product List | Glossary On
Versions: 1 2 3 4 5 6 7 8 9 10 11 12 13 14 15 16 17 18 19 20 21 22 23 24 25 26 27 28 29 30 31 32 33 34 35 36 37 38 39 40 41 42 43 44 45 46 47 48 49 50
000
ASUS44 KMOB 170410
RWRMOB
REGIONAL WEATHER ROUNDUP
NATIONAL WEATHER SERVICE MOBILE AL
1100 PM CDT TUE SEP 16 2014

NOTE: "FAIR" INDICATES FEW OR NO CLOUDS BELOW 12,000 FEET WITH NO
      SIGNIFICANT WEATHER AND/OR OBSTRUCTIONS TO VISIBILITY.

  * THESE STATIONS ARE PART OF THE UNIVERSITY OF SOUTH ALABAMA
    MESONET AND ARE NOT UNDER NWS OR FAA QUALITY CONTROL.

ALZ061>064-170500-
COASTAL ALABAMA

CITY           SKY/WX    TMP DP  RH WIND       PRES   REMARKS
MOBILE REG APT CLOUDY    71  71 100 NE8       30.03F
BROOKLEY FIELD CLOUDY    73  72  96 N6        30.04S
USA CAMPUS*      N/A     72  72 100 CALM      30.03R
DOG RIVER*     NOT AVBL


CITY           SKY/WX    TMP DP  RH WIND       PRES   REMARKS
MOUNT VERNON*    N/A     70  68  94 CALM      30.04S
SARALAND*      NOT AVBL
BAY MINETTE*   NOT AVBL
LOXLEY*          N/A    N/A N/A N/A N3        30.02F
ROBERTSDALE*     N/A    N/A N/A N/A CALM      30.03F
FAIRHOPE*        N/A     73  72  94 VRB2      30.03R
ELBERTA*         N/A     73  59  60 VRB3      30.01F
FOLEY*         NOT AVBL
GRAND BAY*       N/A     73  72  94 VRB2      30.00F
DAUPHIN ISLND* NOT AVBL
BON SCOUR NWR* NOT AVBL
GULF SHORES    CLOUDY    72  71  96 CALM      30.01F

$$

ALZ051>060-170500-
INTERIOR SOUTHWEST AND SOUTH CENTRAL ALABAMA

CITY           SKY/WX    TMP DP  RH WIND       PRES   REMARKS
GREENVILLE     MOCLDY    73  70  90 W5        30.02R
EVERGREEN      MOCLDY    75  72  90 VRB3      30.02F
CASTLEBERRY*   NOT AVBL
ATMORE*          N/A     72  72 100 W5        30.03F
DIXIE*         NOT AVBL
ANDALUSIA/OPP  MOCLDY    75  70  84 NW6       30.00F
ANDALUSIA*     NOT AVBL
FLORALA APT    MOCLDY    72  69  90 CALM      30.02S
FLORALA*         N/A     70  68  94 CALM      29.98S

$$

FLZ001>006-170500-
WESTERN FLORIDA PANHANDLE

CITY           SKY/WX    TMP DP  RH WIND       PRES   REMARKS
PENSACOLA      LGT RAIN  72  72 100 NW9       29.98F
NAS PENSACOLA  LGT RAIN  74  72  93 NW6       29.99F
MILTON         CLOUDY    74  73  97 W6        29.98F
WHTNG S FIELD  CLOUDY    74  72  93 W6        29.98F


CITY           SKY/WX    TMP DP  RH WIND       PRES   REMARKS
WALNUT HILL*   NOT AVBL
JAY*           NOT AVBL
DUKE FIELD     DRIZZLE   72  72 100 CALM      30.00R
CRESTVIEW      CLOUDY    73  72  96 N3        30.01S
VALPARAISO     MOCLDY    74  72  92 NE5       30.00R
DESTIN         CLOUDY    76  74  93 CALM      29.99R

$$

MSZ076-079-170500-
INTERIOR SOUTHEAST MISSISSIPPI

CITY           SKY/WX    TMP DP  RH WIND       PRES   REMARKS
LEAKESVILLE*   NOT AVBL
AGRICOLA*      NOT AVBL

$$

MARINE OBSERVATIONS

STATION/POSITION TIME  TEMP    WIND        PRES    WAVE
                       AIR SEA DIR/SP/G            HT/PER
                 (UTC) (F)     (DEG/KT/KT) (MB)    (FT/S)
PASCAGOULA       0400   75     340/ 11/ 14 1015.7F
PETIT BOIS ISLND 0400   78     350/ 12/ 14 1016.3R
GRAND BAY        0300   75     310/  6     1017.0S
E DAUPHIN ISLAND 0400   76     350/ 12/ 15 1016.3R
STATE DOCKS      0400   74 87              1016.7F
MEAHER PARK      0300   74     330/  4     1016.9R
WEEKS BAY        0300   75                   N/A
FORT MORGAN      0400   78     350/ 16/ 18 1015.8R
12 S ORANGE BCH  0400   78 86   10/ 17/ 21 1015.8R   2/ 6
PENSACOLA BAY    0400   76 87  330/  6/  8 1015.5F
64 S DAUPHIN ISL 0309   80 85  280/ 12/ 14 1016.1S   3/ 5
67 S FORT MORGAN 0300   79                 1015.2F

$$

SELECTED LOCATIONS ACROSS THE REGION

CITY           SKY/WX    TMP DP  RH WIND       PRES   REMARKS
NEW ORLEANS    CLOUDY    77  73  87 N8        30.02F
GULFPORT       CLOUDY    74  72  93 N3        30.02S
PASCAGOULA AP  CLOUDY    73  72  96 N6        30.01F
PASCAGOULA*      N/A     73  73 100 N6        30.00F
HATTIESBURG    MOCLDY    72  70  93 W3        30.04F
LAUREL         MOCLDY    72  66  83 CALM      30.05S
MERIDIAN       PTCLDY    72  69  90 CALM      30.02S
JACKSON        CLEAR     74  69  85 CALM      30.03R
MONTGOMERY     CLEAR     75  70  84 SW5       30.00F
TROY           MOCLDY    73  70  90 CALM      30.02S
KINSTON*       NOT AVBL
GENEVA*          N/A     68  66  94 CALM      30.03R
ASHFORD*       NOT AVBL
DOTHAN         PTCLDY    71  70  96 CALM      30.04R
PANAMA CITY    CLOUDY    74  71  91 N3        29.99R

$$




USA.gov is the U.S. government's official web portal to all federal, state and local government web resources and services.